Traverse City, MI

10:00 AM EST on January 20, 2017 (GMT -0500)
Cherry Capital

Weather History for KTVC - January, 2013

Change the Weather History Date:

Sunday, January 20, 2013

  Actual Average Record
Temperature  
Mean Temperature 20 °F 21 °F  
Max Temperature 27 °F 27 °F 55 °F (1901)
Min Temperature 13 °F 15 °F -12 °F (1984)
Degree Days  
Heating Degree Days 45 44  
Month to date heating degree days 715 865  
Since 1 July heating degree days 3182 3673  
Moisture  
Dew Point 9 °F    
Average Humidity 73    
Maximum Humidity 84    
Minimum Humidity 61    
Precipitation  
Precipitation 0.02 in 0.08 in 0.98 in (1974)
Month to date precipitation 0.54 1.93  
Year to date precipitation 0.54 1.93  
Snow  
Snow 0.00 in - - ()
Snow Depth 2.00 in    
Sea Level Pressure  
Sea Level Pressure 29.95 in    
Wind  
Wind Speed 13 mph (WNW)    
Max Wind Speed 36 mph    
Max Gust Speed 46 mph    
Visibility 3 miles    
Events Fog , Snow    
T = Trace of Precipitation, MM = Missing Value Source: NWS Daily Summary

Daily Weather History Graph

Daily Weather History Graph

Search for Another Location

Airport or City:

Trip Planner

Search our weather history database for the weather conditions in past years. The results will help you decide how hot, cold, wet, or windy it might be!

Date:

Astronomy

Jan. 20, 2013 Rise Set
Actual Time 8:12 AM EST 5:34 PM EST
Civil Twilight 7:40 AM EST 6:06 PM EST
Nautical Twilight 7:04 AM EST 6:42 PM EST
Astronomical Twilight 6:30 AM EST 7:17 PM EST
Moon 12:36 PM EST 2:43 AM EST
Length of Visible Light 10h 26m
Length of Day
9h 21m
Waxing Gibbous, 66% of the Moon is Illuminated
Jan 20
Waxing Gibbous
Jan 26
Full
Feb 3
Last Quarter
Feb 10
New
Feb 17
First Quarter

Hourly Weather History & Observations

Time (EST) Temp. Windchill Dew Point Humidity Pressure Visibility Wind Dir Wind Speed Gust Speed Precip Events Conditions
12:34 AM 24.8 °F 10.3 °F 21.2 °F 86% 29.54 in 0.8 mi WNW 20.7 mph 35.7 mph 0.00 in Snow Light Snow
12:44 AM 24.8 °F 7.3 °F 19.4 °F 80% 29.56 in 0.2 mi NW 32.2 mph 42.6 mph 0.00 in Fog , Snow Heavy Snow
12:53 AM 23.0 °F 7.2 °F 18.0 °F 81% 29.60 in 0.2 mi NW 23.0 mph 44.9 mph 0.01 in Snow Heavy Snow
1:09 AM 21.2 °F 4.2 °F 15.8 °F 80% 29.60 in 0.5 mi NW 25.3 mph 42.6 mph 0.00 in Snow Snow
1:23 AM 21.2 °F 3.3 °F 14.0 °F 74% 29.62 in 1.2 mi NW 28.8 mph 39.1 mph 0.00 in Snow Blowing Snow
1:45 AM 19.4 °F 1.8 °F 10.4 °F 68% 29.65 in 1.2 mi NW 25.3 mph 44.9 mph 0.00 in Snow Light Snow
1:53 AM 19.9 °F 1.0 °F 10.0 °F 65% 29.68 in 2.0 mi NW 31.1 mph 41.4 mph 0.00 in Snow Light Snow
1:57 AM 19.4 °F 0.2 °F 10.4 °F 68% 29.67 in 0.8 mi WNW 31.1 mph 41.4 mph 0.00 in Snow Light Snow
2:19 AM 19.4 °F 1.1 °F 8.6 °F 63% 29.70 in 1.2 mi WNW 27.6 mph 38.0 mph 0.01 in Snow Blowing Snow
2:28 AM 17.6 °F -1.9 °F 10.4 °F 73% 29.71 in 1.2 mi WNW 29.9 mph 38.0 mph 0.01 in Snow Blowing Snow
2:38 AM 17.6 °F 0.1 °F 10.4 °F 73% 29.73 in 0.8 mi WNW 23.0 mph 38.0 mph 0.01 in Snow Light Snow
2:49 AM 17.6 °F -1.0 °F 8.6 °F 68% 29.74 in 1.5 mi WNW 26.5 mph 36.8 mph 0.01 in Snow Light Snow
2:53 AM 17.1 °F -0.3 °F 9.0 °F 71% 29.77 in 1.5 mi WNW 21.9 mph 34.5 mph 0.01 in Snow Light Snow
3:05 AM 17.6 °F 1.7 °F 8.6 °F 68% 29.76 in 3.0 mi West 18.4 mph 36.8 mph 0.00 in Snow Light Snow
3:24 AM 17.6 °F 0.5 °F 8.6 °F 68% 29.78 in 2.0 mi WNW 21.9 mph 31.1 mph 0.00 in Snow Light Snow
3:29 AM 17.6 °F 0.9 °F 8.6 °F 68% 29.79 in 1.8 mi WNW 20.7 mph 31.1 mph 0.00 in Snow Light Snow
3:38 AM 17.6 °F 1.3 °F 8.6 °F 68% 29.79 in 2.0 mi West 19.6 mph 32.2 mph 0.00 in Snow Light Snow
3:46 AM 17.6 °F 0.9 °F 8.6 °F 68% 29.80 in 1.8 mi WNW 20.7 mph 31.1 mph 0.00 in Snow Light Snow
3:53 AM 16.0 °F -1.7 °F 9.0 °F 74% 29.83 in 1.5 mi WNW 21.9 mph 32.2 mph 0.00 in Snow Light Snow
4:01 AM 17.6 °F 2.2 °F 8.6 °F 68% 29.81 in 3.0 mi WNW 17.3 mph 32.2 mph 0.00 in Snow Light Snow
4:19 AM 17.6 °F 1.3 °F 6.8 °F 63% 29.82 in 9.0 mi WNW 19.6 mph 31.1 mph 0.00 in   Overcast
4:37 AM 17.6 °F -0.3 °F 8.6 °F 68% 29.83 in 2.5 mi WNW 24.2 mph 29.9 mph 0.00 in Snow Light Snow
4:46 AM 17.6 °F 1.3 °F 8.6 °F 68% 29.84 in 1.5 mi WNW 19.6 mph 33.4 mph 0.00 in Snow Light Snow
4:53 AM 16.0 °F -1.3 °F 9.0 °F 74% 29.87 in 1.5 mi WNW 20.7 mph 28.8 mph 0.00 in Snow Light Snow
5:13 AM 15.8 °F -1.9 °F 10.4 °F 79% 29.86 in 0.8 mi WNW 21.9 mph 29.9 mph 0.00 in Snow Light Snow
5:23 AM 15.8 °F -0.6 °F 10.4 °F 79% 29.87 in 1.2 mi WNW 18.4 mph 28.8 mph 0.00 in Snow Light Snow
5:53 AM 17.1 °F 1.0 °F 10.0 °F 74% 29.91 in 2.5 mi WNW 18.4 mph 27.6 mph 0.00 in Snow Light Snow
5:57 AM 17.6 °F 0.1 °F 10.4 °F 73% 29.88 in 2.5 mi WNW 23.0 mph 29.9 mph 0.00 in Snow Light Snow
6:53 AM 17.1 °F 3.6 °F 9.0 °F 71% 29.95 in 3.0 mi WNW 12.7 mph - 0.00 in Snow Light Snow
7:00 AM 17.6 °F 2.7 °F 10.4 °F 73% 29.93 in 3.0 mi WNW 16.1 mph 23.0 mph 0.00 in Snow Light Snow
7:53 AM 16.0 °F -0.9 °F 8.1 °F 71% 30.00 in 8.0 mi WNW 19.6 mph 27.6 mph 0.00 in Snow Light Snow
8:53 AM 15.1 °F -1.6 °F 8.1 °F 74% 30.06 in 2.0 mi WNW 18.4 mph 29.9 mph 0.00 in Snow Light Snow
9:00 AM 15.8 °F -1.1 °F 8.6 °F 73% 30.04 in 2.0 mi WNW 19.6 mph 25.3 mph 0.00 in Snow Light Snow
9:53 AM 15.1 °F -1.1 °F 7.0 °F 70% 30.11 in 2.0 mi WNW 17.3 mph - 0.00 in Snow Light Snow
10:00 AM 15.8 °F -0.2 °F 6.8 °F 68% 30.08 in 2.0 mi WNW 17.3 mph - 0.00 in Snow Light Snow
10:53 AM 15.1 °F 0.5 °F 7.0 °F 70% 30.13 in 2.0 mi WNW 13.8 mph - 0.00 in Snow Light Snow
11:11 AM 15.8 °F 0.3 °F 6.8 °F 68% 30.11 in 6.0 mi WNW 16.1 mph - 0.00 in Snow Light Snow
11:53 AM 15.1 °F 1.1 °F 7.0 °F 70% 30.14 in 3.0 mi WNW 12.7 mph 20.7 mph 0.00 in Snow Light Snow
12:53 PM 15.1 °F -0.1 °F 7.0 °F 70% 30.14 in 3.0 mi WNW 15.0 mph - 0.00 in Snow Light Snow
1:53 PM 15.1 °F -0.1 °F 7.0 °F 70% 30.14 in 4.0 mi West 15.0 mph - 0.00 in Snow Light Snow
2:19 PM 15.8 °F 0.3 °F 8.6 °F 73% 30.11 in 2.5 mi West 16.1 mph - 0.00 in Snow Light Snow
2:50 PM 15.8 °F 3.4 °F 6.8 °F 68% 30.11 in 2.5 mi WNW 10.4 mph - 0.00 in Snow Light Snow
2:53 PM 15.1 °F 2.5 °F 7.0 °F 70% 30.15 in 2.5 mi WNW 10.4 mph - 0.00 in Snow Light Snow
2:58 PM 15.8 °F 3.4 °F 6.8 °F 68% 30.11 in 3.0 mi WNW 10.4 mph - 0.00 in Snow Light Snow
3:53 PM 15.1 °F 2.5 °F 5.0 °F 64% 30.17 in 3.0 mi NW 10.4 mph - 0.00 in Snow Light Snow
4:39 PM 14.0 °F 2.0 °F 6.8 °F 73% 30.13 in 3.0 mi WNW 9.2 mph - 0.00 in Snow Light Snow
4:53 PM 14.0 °F 2.0 °F 6.1 °F 71% 30.17 in 3.0 mi WNW 9.2 mph - 0.00 in Snow Light Snow
5:53 PM 14.0 °F 1.2 °F 6.1 °F 71% 30.17 in 7.0 mi West 10.4 mph - 0.00 in Snow Light Snow
6:53 PM 14.0 °F 8.2 °F 8.1 °F 77% 30.17 in 2.0 mi WSW 3.5 mph - 0.00 in Snow Light Snow
7:06 PM 14.0 °F 8.2 °F 8.6 °F 79% 30.13 in 3.0 mi SW 3.5 mph - 0.00 in Snow Light Snow
7:53 PM 12.9 °F 5.2 °F 7.0 °F 77% 30.16 in 9.0 mi West 4.6 mph - 0.00 in   Overcast
8:53 PM 14.0 °F 6.5 °F 7.0 °F 74% 30.15 in 8.0 mi SW 4.6 mph - 0.00 in Snow Light Snow
9:16 PM 12.2 °F 4.3 °F 8.6 °F 85% 30.11 in 1.8 mi WSW 4.6 mph - 0.00 in Snow Light Snow
9:23 PM 12.2 °F 4.3 °F 8.6 °F 85% 30.11 in 1.2 mi WSW 4.6 mph - 0.00 in Snow Light Snow
9:38 PM 14.0 °F 5.1 °F 8.6 °F 79% 30.11 in 2.5 mi SW 5.8 mph - 0.00 in Snow Light Snow
9:45 PM 14.0 °F 8.2 °F 8.6 °F 79% 30.10 in 3.0 mi SW 3.5 mph - 0.00 in Snow Light Snow
9:53 PM 14.0 °F 6.5 °F 8.1 °F 77% 30.14 in 2.5 mi SW 4.6 mph - 0.00 in Snow Light Snow
10:02 PM 14.0 °F 3.9 °F 8.6 °F 79% 30.10 in 3.0 mi WSW 6.9 mph - 0.00 in Snow Light Snow
10:33 PM 12.2 °F 4.3 °F 8.6 °F 85% 30.09 in 2.5 mi WSW 4.6 mph - 0.00 in Snow Light Snow
10:41 PM 12.2 °F 4.3 °F 8.6 °F 85% 30.09 in 3.0 mi SW 4.6 mph - 0.00 in Snow Light Snow
10:46 PM 12.2 °F 6.1 °F 8.6 °F 85% 30.09 in 2.5 mi SW 3.5 mph - 0.00 in Snow Light Snow
10:53 PM 12.9 °F 6.9 °F 8.1 °F 81% 30.13 in 2.5 mi Variable 3.5 mph - 0.00 in Snow Light Snow
11:26 PM 12.2 °F 4.3 °F 8.6 °F 85% 30.07 in 1.2 mi SW 4.6 mph - 0.00 in Snow Light Snow
11:53 PM 12.9 °F 5.2 °F 9.0 °F 84% 30.11 in 2.0 mi SW 4.6 mph - 0.00 in Snow Light Snow